Regional Weather Roundup
Issued by NWS

Home | Current Version | Previous Version | Graphics & Text | Print | Product List | Glossary On
Versions: 1 2 3 4 5 6 7 8 9 10 11 12 13 14 15 16 17 18 19 20 21 22 23 24 25 26 27 28 29 30 31 32 33 34 35 36 37 38 39 40 41 42 43 44 45 46 47 48 49 50
000
ASUS44 KMEG 301510
RWRTN
TENNESSEE HOURLY STATE WEATHER ROUNDUP
NATIONAL WEATHER SERVICE MEMPHIS TN
1000 AM CDT SAT JUL 30 2016

TNZ002-004-019-021-049-052-054-088>092-301600-
WEST TENNESSEE

CITY           SKY/WX    TMP DP  RH WIND       PRES   REMARKS
MEMPHIS INTL   PTSUNNY   80  73  79 S7        30.02R
NWS MEMPHIS      N/A     75 N/A N/A MISG        N/A
JACKSON        CLOUDY    74  73  97 S5        30.03R
DYERSBURG      MOSUNNY  N/A N/A N/A MISG        N/A
UNION CITY     MOSUNNY   79  73  83 S5        30.00S
PARIS          MOSUNNY   77  70  78 SW5       30.02R
LEXINGTON      PTSUNNY   77  72  83 S5        30.02R
$$

TNZ008-025-027-028-033-062-065-066-301600-
NORTH MIDDLE TENNESSEE

CITY           SKY/WX    TMP DP  RH WIND       PRES   REMARKS
NASHVILLE      PTSUNNY   80  70  71 VRB5      30.03R
CLARKSVILLE    PTSUNNY   77  71  82 SW6       30.01S
SMYRNA         PTSUNNY   77  73  87 S6        30.04R FOG
COOKEVILLE     CLOUDY    77  73  88 CALM      30.04S
CROSSVILLE     MOSUNNY   77  68  73 W9        30.09S
$$

TNZ061-075-076-078-094-096-097-301600-
SOUTH MIDDLE TENNESSEE

CITY           SKY/WX    TMP DP  RH WIND       PRES   REMARKS
TULLAHOMA      SUNNY     81  68  65 CALM      30.06F
WINCHESTER     SUNNY     81  70  69 CALM      30.05F
MCMINNVILLE    SUNNY     81  75  83 W6        30.05S
COLUMBIA       MOSUNNY  N/A N/A N/A CALM      30.02S
SHELBYVILLE    MOSUNNY   82  73  74 SW3       30.05S
$$

TNZ017-018-042-046-047-301600-
NORTHEAST TENNESSEE

CITY           SKY/WX    TMP DP  RH WIND       PRES   REMARKS
TRI CITIES     CLOUDY    74  70  87 CALM      30.09R
$$

TNZ012-013-036-069-073-074-301600-
CENTRAL EAST TENNESSEE

CITY           SKY/WX    TMP DP  RH WIND       PRES   REMARKS
KNOXVILLE      CLOUDY    78  72  81 VRB5      30.04F
OAK RIDGE      MOSUNNY   82  71  69 W6        30.05S
GATLINBURG     SUNNY     79  70  73 S3        30.05F
$$

TNZ083-085-099-301600-
SOUTHEAST TENNESSEE

CITY           SKY/WX    TMP DP  RH WIND       PRES   REMARKS
CHATTANOOGA    CLOUDY    78  71  79 S3        30.05S
$$

SKY/WX REPORTED AS FAIR MEANS FEW OR NO CLOUDS BELOW
12 THOUSAND FEET.





USA.gov is the U.S. government's official web portal to all federal, state and local government web resources and services.